Weather History for Pope Field Airport, NC

Change the Weather History Date:

Monday, October 1, 2012

  Actual Average Record
Temperature  
Mean Temperature 65 °F -  
Max Temperature 71 °F 75 °F 93 °F (1986)
Min Temperature 59 °F 54 °F 37 °F (1993)
Growing Degree Days 15 (Base 50)    
Moisture  
Dew Point 62 °F    
Average Humidity 94    
Maximum Humidity 100    
Minimum Humidity 80    
Precipitation  
Precipitation 0.29 in - - ()
Sea Level Pressure  
Sea Level Pressure 29.88 in    
Wind  
Wind Speed 4 mph (ENE)    
Max Wind Speed 10 mph    
Max Gust Speed -    
Visibility 8 miles    
Events Rain    
Averages and records for this station are not official NWS values.
T = Trace of Precipitation, MM = Missing Value Source: NWS Daily Summary

Daily Weather History Graph

Daily Weather History Graph

Search for Another Location

Airport:

Trip Planner

Search our weather history database for the weather conditions in past years. The results will help you decide how hot, cold, wet, or windy it might be!

Date:

Astronomy

Oct. 01, 2012 Rise Set
Actual Time 7:11 AM EDT 6:59 PM EDT
Civil Twilight 6:45 AM EDT 7:24 PM EDT
Nautical Twilight 6:16 AM EDT 7:53 PM EDT
Astronomical Twilight 5:46 AM EDT 8:23 PM EDT
Moon 7:41 PM EDT (10/1) 8:33 AM EDT (10/1)
Length of Visible Light 12h 38m
Length of Day
11h 48m
Full, 98% of the Moon is Illuminated
Oct 1
Full
Oct 8
Last Quarter
Oct 15
New
Oct 21
First Quarter
Oct 29
Full

Hourly Weather History & Observations

Time (EDT) Temp. Dew Point Humidity Pressure Visibility Wind Dir Wind Speed Gust Speed Precip Events Conditions
12:31 AM 64.4 °F 62.6 °F 94% 29.90 in 10.0 mi Calm Calm - N/A Rain Light Rain
12:54 AM 64.4 °F 62.6 °F 94% 29.90 in 10.0 mi Calm Calm - N/A   Scattered Clouds
12:55 AM 64.9 °F 62.4 °F 92% 29.90 in 10.0 mi Calm Calm - 0.00 in   Scattered Clouds
1:37 AM 66.2 °F 62.6 °F 88% 29.90 in 10.0 mi Calm Calm - N/A   Light Drizzle
1:55 AM 65.3 °F 62.1 °F 89% 29.90 in 10.0 mi Calm Calm - 0.00 in Rain Light Rain
2:51 AM 64.4 °F 62.6 °F 94% 29.88 in 10.0 mi Calm Calm - N/A Rain Light Rain
2:52 AM 64.4 °F 62.6 °F 94% 29.88 in 10.0 mi Calm Calm - N/A   Light Drizzle
2:55 AM 64.6 °F 62.4 °F 93% 29.88 in 10.0 mi Calm Calm - 0.00 in   Light Drizzle
3:05 AM 64.4 °F 62.6 °F 94% 29.88 in 10.0 mi East 3.5 mph - N/A   Overcast
3:10 AM 64.4 °F 62.6 °F 94% 29.88 in 10.0 mi ENE 3.5 mph - N/A   Overcast
3:14 AM 64.4 °F 62.6 °F 94% 29.88 in 10.0 mi Calm Calm - N/A   Mostly Cloudy
3:15 AM 64.4 °F 62.6 °F 94% 29.88 in 10.0 mi Calm Calm - N/A   Mostly Cloudy
3:16 AM 64.4 °F 62.6 °F 94% 29.88 in 10.0 mi Calm Calm - N/A   Overcast
3:25 AM 64.4 °F 62.6 °F 94% 29.88 in 9.0 mi Calm Calm - N/A Rain Light Rain
3:28 AM 64.4 °F 62.6 °F 94% 29.88 in 8.0 mi East 3.5 mph - N/A Rain Light Rain
3:36 AM 64.4 °F 62.6 °F 94% 29.88 in 7.0 mi Calm Calm - N/A Rain Light Rain
3:41 AM 64.4 °F 62.6 °F 94% 29.88 in 7.0 mi ENE 3.5 mph - N/A   Light Drizzle
3:46 AM 64.4 °F 62.6 °F 94% 29.88 in 9.0 mi NE 3.5 mph - N/A   Overcast
3:49 AM 64.4 °F 62.6 °F 94% 29.88 in 9.0 mi Calm Calm - N/A   Overcast
3:51 AM 64.4 °F 62.6 °F 94% 29.88 in 9.0 mi Calm Calm - N/A   Overcast
3:53 AM 64.4 °F 62.6 °F 94% 29.88 in 8.0 mi NE 3.5 mph - N/A   Overcast
3:54 AM 64.4 °F 62.6 °F 94% 29.88 in 8.0 mi NE 3.5 mph - N/A   Light Drizzle
3:55 AM 64.2 °F 63.0 °F 96% 29.87 in 8.0 mi NE 3.5 mph - 0.01 in   Light Drizzle
3:59 AM 64.4 °F 62.6 °F 94% 29.87 in 7.0 mi NE 4.6 mph - N/A   Light Drizzle
4:03 AM 64.4 °F 62.6 °F 94% 29.87 in 6.0 mi NE 4.6 mph - N/A   Drizzle
4:05 AM 64.4 °F 62.6 °F 94% 29.87 in 6.0 mi NE 4.6 mph - N/A Rain Light Rain
4:08 AM 64.4 °F 62.6 °F 94% 29.87 in 4.0 mi NE 4.6 mph - N/A Rain Rain
4:13 AM 64.4 °F 62.6 °F 94% 29.87 in 3.0 mi ENE 4.6 mph - N/A Rain Light Rain
4:15 AM 64.4 °F 62.6 °F 94% 29.87 in 3.0 mi NE 3.5 mph - N/A Rain Light Rain
4:22 AM 62.6 °F 62.6 °F 100% 29.87 in 3.0 mi East 6.9 mph - N/A Rain Light Rain
4:48 AM 62.6 °F 59.0 °F 88% 29.88 in 4.0 mi ENE 8.1 mph - N/A Rain Light Rain
4:55 AM 61.5 °F 59.5 °F 93% 29.87 in 4.0 mi ENE 8.1 mph - 0.10 in Rain Light Rain
4:57 AM 60.8 °F 59.0 °F 94% 29.87 in 4.0 mi ENE 9.2 mph - N/A Rain Light Rain
5:12 AM 60.8 °F 59.0 °F 94% 29.88 in 4.0 mi East 8.1 mph - N/A Rain Light Rain
5:16 AM 60.8 °F 59.0 °F 94% 29.88 in 3.0 mi ENE 6.9 mph - N/A Rain Light Rain
5:22 AM 60.8 °F 59.0 °F 94% 29.88 in 3.0 mi ENE 9.2 mph - N/A Rain Light Rain
5:24 AM 60.8 °F 59.0 °F 94% 29.88 in 4.0 mi ENE 8.1 mph - N/A Rain Light Rain
5:28 AM 60.8 °F 59.0 °F 94% 29.88 in 4.0 mi NE 6.9 mph - N/A Rain Light Rain
5:37 AM 60.8 °F 59.0 °F 94% 29.87 in 4.0 mi ENE 9.2 mph - N/A Rain Light Rain
5:39 AM 60.8 °F 59.0 °F 94% 29.87 in 3.0 mi ENE 9.2 mph - N/A Rain Light Rain
5:41 AM 60.8 °F 59.0 °F 94% 29.87 in 3.0 mi ENE 6.9 mph - N/A Rain Light Rain
5:47 AM 60.8 °F 59.0 °F 94% 29.88 in 4.0 mi ENE 8.1 mph - N/A Rain Light Rain
5:54 AM 60.8 °F 59.0 °F 94% 29.88 in 4.0 mi East 5.8 mph - N/A Rain Light Rain
5:55 AM 60.1 °F 59.0 °F 96% 29.88 in 4.0 mi East 4.6 mph - 0.09 in Rain Light Rain
6:02 AM 60.8 °F 59.0 °F 94% 29.88 in 5.0 mi ENE 5.8 mph - N/A Rain Light Rain
6:10 AM 60.8 °F 59.0 °F 94% 29.88 in 3.0 mi East 6.9 mph - N/A Rain Light Rain
6:11 AM 60.8 °F 59.0 °F 94% 29.88 in 3.0 mi East 6.9 mph - N/A Rain Light Rain
6:12 AM 60.8 °F 59.0 °F 94% 29.88 in 3.0 mi East 5.8 mph - N/A Rain Light Rain
6:17 AM 60.8 °F 59.0 °F 94% 29.88 in 2.5 mi ENE 5.8 mph - N/A Rain Light Rain
6:22 AM 60.8 °F 59.0 °F 94% 29.88 in 3.0 mi ENE 6.9 mph - N/A Rain Light Rain
6:32 AM 59.0 °F 59.0 °F 100% 29.87 in 6.0 mi ENE 9.2 mph - N/A Rain Light Rain
6:39 AM 59.0 °F 59.0 °F 100% 29.88 in 8.0 mi ENE 5.8 mph - N/A   Light Drizzle
6:41 AM 59.0 °F 59.0 °F 100% 29.88 in 9.0 mi ENE 5.8 mph - N/A   Overcast
6:44 AM 59.0 °F 59.0 °F 100% 29.88 in 9.0 mi East 4.6 mph - N/A   Light Drizzle
6:51 AM 59.0 °F 59.0 °F 100% 29.88 in 7.0 mi East 5.8 mph - N/A   Light Drizzle
6:55 AM 59.7 °F 58.8 °F 97% 29.88 in 7.0 mi ENE 5.8 mph - 0.07 in   Light Drizzle
7:11 AM 60.8 °F 59.0 °F 94% 29.88 in 8.0 mi East 5.8 mph - N/A   Overcast
7:13 AM 60.8 °F 59.0 °F 94% 29.88 in 9.0 mi ENE 5.8 mph - N/A   Overcast
7:37 AM 60.8 °F 59.0 °F 94% 29.88 in 9.0 mi ENE 5.8 mph - N/A   Light Drizzle
7:55 AM 60.4 °F 59.9 °F 98% 29.89 in 8.0 mi ENE 4.6 mph - 0.01 in Rain Light Rain
7:57 AM 60.8 °F 59.0 °F 94% 29.89 in 10.0 mi ENE 4.6 mph - N/A   Overcast
8:00 AM 60.8 °F 60.8 °F 100% 29.89 in 8.0 mi ENE 3.5 mph - N/A Rain Light Rain
8:11 AM 60.8 °F 60.8 °F 100% 29.90 in 8.0 mi NE 3.5 mph - N/A Rain Light Rain
8:14 AM 60.8 °F 60.8 °F 100% 29.90 in 9.0 mi ENE 4.6 mph - N/A   Light Drizzle
8:17 AM 60.8 °F 59.0 °F 94% 29.90 in 10.0 mi East 4.6 mph - N/A   Overcast
8:52 AM 60.8 °F 59.0 °F 94% 29.91 in 10.0 mi ENE 4.6 mph - N/A   Overcast
8:55 AM 61.0 °F 59.9 °F 96% 29.91 in 10.0 mi ENE 4.6 mph - 0.01 in   Overcast
9:04 AM 60.8 °F 59.0 °F 94% 29.92 in 10.0 mi NNE 3.5 mph - N/A   Overcast
9:26 AM 60.8 °F 60.8 °F 100% 29.93 in 10.0 mi NW 6.9 mph - N/A   Overcast
9:41 AM 60.8 °F 59.0 °F 94% 29.93 in 10.0 mi North 4.6 mph - N/A   Overcast
9:42 AM 60.8 °F 59.0 °F 94% 29.93 in 10.0 mi North 4.6 mph - N/A   Overcast
9:55 AM 61.2 °F 59.9 °F 96% 29.93 in 10.0 mi North 3.5 mph - N/A   Overcast
9:58 AM 60.8 °F 59.0 °F 94% 29.93 in 10.0 mi NNE 3.5 mph - N/A   Overcast
10:06 AM 60.8 °F 59.0 °F 94% 29.93 in 10.0 mi NE 5.8 mph - N/A   Overcast
10:07 AM 60.8 °F 59.0 °F 94% 29.93 in 10.0 mi ENE 5.8 mph - N/A   Overcast
10:11 AM 60.8 °F 59.0 °F 94% 29.94 in 10.0 mi NE 3.5 mph - N/A   Overcast
10:23 AM 60.8 °F 60.8 °F 100% 29.94 in 10.0 mi ENE 5.8 mph - N/A   Overcast
10:55 AM 61.9 °F 60.3 °F 94% 29.92 in 10.0 mi ENE 8.1 mph - N/A   Overcast
11:10 AM 62.6 °F 60.8 °F 94% 29.92 in 10.0 mi ENE 6.9 mph - N/A   Overcast
11:55 AM 64.0 °F 60.6 °F 89% 29.91 in 10.0 mi East 8.1 mph - N/A   Overcast
12:55 PM 65.8 °F 61.3 °F 85% 29.89 in 10.0 mi ENE 10.4 mph - N/A   Overcast
1:55 PM 68.0 °F 61.7 °F 80% 29.88 in 10.0 mi Variable 6.9 mph - N/A   Overcast
2:55 PM 69.4 °F 63.3 °F 81% 29.87 in 10.0 mi East 8.1 mph - N/A   Overcast
3:55 PM 70.0 °F 64.2 °F 82% 29.87 in 10.0 mi ENE 5.8 mph - N/A   Overcast
4:55 PM 70.9 °F 65.1 °F 82% 29.86 in 10.0 mi ENE 5.8 mph - N/A   Overcast
5:55 PM 70.9 °F 65.8 °F 84% 29.86 in 10.0 mi ENE 8.1 mph - N/A   Overcast
6:55 PM 70.0 °F 65.8 °F 87% 29.86 in 10.0 mi ENE 5.8 mph - N/A   Overcast
7:44 PM 69.8 °F 66.2 °F 88% 29.85 in 10.0 mi ENE 5.8 mph - N/A   Overcast
7:55 PM 69.6 °F 66.2 °F 89% 29.85 in 10.0 mi ENE 4.6 mph - N/A   Overcast
8:55 PM 69.8 °F 66.6 °F 89% 29.86 in 10.0 mi East 5.8 mph - N/A   Overcast
9:49 PM 69.8 °F 68.0 °F 94% 29.86 in 10.0 mi East 5.8 mph - N/A   Light Drizzle
9:55 PM 70.3 °F 67.5 °F 91% 29.86 in 10.0 mi East 4.6 mph - 0.00 in   Light Drizzle
10:13 PM 69.8 °F 68.0 °F 94% 29.86 in 10.0 mi East 5.8 mph - N/A   Overcast
10:14 PM 69.8 °F 68.0 °F 94% 29.86 in 10.0 mi East 5.8 mph - N/A   Overcast
10:55 PM 70.0 °F 68.2 °F 94% 29.87 in 10.0 mi East 4.6 mph - 0.00 in   Overcast
11:03 PM 69.8 °F 68.0 °F 94% 29.86 in 10.0 mi East 4.6 mph - N/A   Overcast
11:13 PM 69.8 °F 68.0 °F 94% 29.86 in 10.0 mi East 4.6 mph - N/A   Overcast
11:22 PM 69.8 °F 68.0 °F 94% 29.86 in 9.0 mi East 4.6 mph - N/A Rain Light Rain
11:24 PM 69.8 °F 68.0 °F 94% 29.86 in 9.0 mi East 3.5 mph - N/A Rain Light Rain
11:33 PM 69.8 °F 69.8 °F 100% 29.86 in 10.0 mi East 4.6 mph - N/A   Overcast
11:48 PM 71.6 °F 69.8 °F 94% 29.86 in 10.0 mi Variable 4.6 mph - N/A   Overcast
11:55 PM 70.7 °F 69.3 °F 95% 29.86 in 10.0 mi Variable 4.6 mph - 0.00 in   Overcast